QPF
0.00 0.00 0.00 0.00 0.00 0.00 0.00 0.00 0.00 0.01 0.01 0.00 0.01 0.01 0.00 0.00 0.00 0.02 0.01 0.00 0.01 0.06 0.07 0.16 0.05 0.01 0.01 0.07 0.10 0.06 0.07 0.05 0.05
0.00 0.00 0.00 0.00 0.00 0.00 0.00 0.01 0.00 0.01 0.02 0.01 0.01 0.01 0.01 0.01 0.00 0.00 0.00 0.00 0.00 0.00 0.00 0.01 0.00 0.01 0.01 0.01 0.01 0.01 0.00 0.01 0.04
0.00 0.00 0.00 0.00 0.00 0.00 0.00 0.00 0.00 0.00 0.00 0.00 0.00 0.00 0.00 0.00 0.00 0.00 0.00 0.00 0.00 0.00 0.00 0.00 0.00 0.00 0.00 0.00 0.01 0.01 0.01 0.01 0.05
0.00 0.00 0.00 0.00 0.00 0.00 0.00 0.00 0.00 0.00 0.00 0.00 0.00 0.00 0.00 0.00 0.00 0.00 0.00 0.00 0.00 0.00 0.00 0.00 0.00 0.00 0.00 0.00 0.00 0.01 0.01 0.01 0.01
0.00 0.00 0.00 0.00 0.00 0.00 0.00 0.00 0.00 0.00 0.00 0.00 0.00 0.00 0.00 0.00 0.00 0.00 0.00 0.00 0.00 0.00 0.00 0.00 0.00 0.00 0.00 0.00 0.00 0.00 0.00 0.00 0.01
0.00 0.00 0.00 0.00 0.00 0.00 0.00 0.00 0.00 0.00 0.00 0.00 0.00 0.00 0.00 0.00 0.00 0.00 0.00 0.00 0.00 0.00 0.00 0.00 0.00 0.00 0.00 0.00 0.00 0.00 0.00 0.00 0.00
0.00 0.00 0.00 0.00 0.00 0.00 0.00 0.00 0.00 0.00 0.00 0.00 0.00 0.00 0.00 0.00 0.00 0.00 0.00 0.00 0.00 0.00 0.00 0.00 0.00 0.00 0.00 0.00 0.00 0.00 0.00 0.00 0.00
0.00 0.00 0.00 0.00 0.00 0.00 0.00 0.00 0.00 0.00 0.00 0.00 0.00 0.00 0.00 0.00 0.00 0.00 0.00 0.00 0.00 0.00 0.00 0.00 0.00 0.00 0.00 0.00 0.00 0.00 0.00 0.00 0.00
0.00 0.00 0.00 0.00 0.00 0.00 0.00 0.00 0.00 0.00 0.00 0.00 0.00 0.00 0.00 0.00 0.00 0.00 0.00 0.00 0.00 0.00 0.00 0.00 0.00 0.00 0.00 0.00 0.00 0.00 0.00 0.00 0.00
0.00 0.00 0.00 0.00 0.00 0.00 0.00 0.00 0.00 0.00 0.00 0.00 0.00 0.00 0.00 0.00 0.00 0.00 0.00 0.00 0.00 0.00 0.00 0.00 0.00 0.00 0.00 0.00 0.00 0.00 0.00 0.00 0.00
0.00 0.00 0.00 0.00 0.00 0.00 0.00 0.00 0.00 0.00 0.00 0.00 0.00 0.00 0.00 0.00 0.00 0.00 0.00 0.00 0.00 0.00 0.00 0.00 0.00 0.00 0.00 0.00 0.00 0.00 0.00 0.00 0.00
0.00 0.00 0.00 0.00 0.00 0.00 0.00 0.00 0.00 0.00 0.00 0.00 0.00 0.00 0.00 0.00 0.00 0.00 0.00 0.00 0.00 0.00 0.00 0.00 0.00 0.00 0.00 0.00 0.00 0.00 0.00 0.00 0.00
0.00 0.00 0.00 0.00 0.00 0.00 0.00 0.00 0.00 0.00 0.00 0.00 0.00 0.00 0.00 0.00 0.00 0.00 0.00 0.00 0.00 0.00 0.00 0.01 0.01 0.01 0.01 0.00 0.00 0.00 0.00 0.00 0.00
0.00 0.00 0.00 0.00 0.00 0.00 0.00 0.00 0.00 0.00 0.00 0.00 0.00 0.00 0.00 0.00 0.00 0.00 0.00 0.00 0.01 0.00 0.00 0.00 0.00 0.01 0.01 0.00 0.00 0.00 0.00 0.00 0.00
0.00 0.00 0.00 0.00 0.00 0.00 0.00 0.00 0.00 0.00 0.00 0.00 0.00 0.00 0.00 0.00 0.00 0.00 0.00 0.00 0.00 0.00 0.00 0.00 0.00 0.00 0.00 0.00 0.00 0.00 0.00 0.00 0.00
0.00 0.00 0.00 0.00 0.00 0.00 0.00 0.00 0.00 0.00 0.00 0.00 0.00 0.00 0.00 0.00 0.00 0.00 0.00 0.00 0.00 0.00 0.00 0.00 0.00 0.00 0.00 0.00 0.00 0.00 0.00 0.00 0.00
0.00 0.00 0.00 0.00 0.00 0.00 0.00 0.00 0.00 0.00 0.00 0.00 0.00 0.00 0.00 0.00 0.00 0.00 0.00 0.00 0.00 0.00 0.00 0.00 0.00 0.00 0.00 0.00 0.00 0.00 0.00 0.00 0.00
0.00 0.00 0.00 0.00 0.00 0.00 0.00 0.00 0.00 0.00 0.00 0.00 0.00 0.00 0.00 0.00 0.00 0.00 0.00 0.00 0.00 0.00 0.00 0.00 0.00 0.00 0.00 0.00 0.00 0.00 0.00 0.00 0.00
0.00 0.00 0.00 0.00 0.00 0.00 0.00 0.00 0.00 0.00 0.00 0.00 0.00 0.00 0.00 0.00 0.00 0.00 0.00 0.00 0.00 0.00 0.00 0.00 0.00 0.00 0.00 0.00 0.00 0.00 0.00 0.00 0.00
0.00 0.00 0.00 0.00 0.00 0.00 0.00 0.00 0.00 0.00 0.00 0.00 0.00 0.00 0.00 0.00 0.00 0.00 0.00 0.00 0.00 0.00 0.00 0.00 0.00 0.00 0.00 0.00 0.00 0.00 0.00 0.00 0.00
MSLP
1006.73 1007.52 1007.94 1008.39 1008.78 1009.41 1010.01 1010.40 1010.76 1011.37 1012.32 1012.64 1012.99 1013.63 1013.91 1013.95 1014.07 1013.63 1013.25 1013.22 1013.99 1013.93 1013.89 1014.08 1013.97 1014.02 1013.84 1013.59 1013.36 1013.40 1013.26 1013.09 1012.93
1006.72 1007.51 1008.09 1008.94 1009.86 1010.61 1011.09 1011.70 1012.01 1012.72 1013.04 1013.61 1013.70 1014.14 1014.18 1014.25 1014.32 1014.24 1014.04 1014.35 1014.45 1014.23 1014.44 1014.42 1014.36 1014.33 1014.29 1013.96 1013.71 1013.50 1013.20 1012.62 1012.43
1006.69 1007.52 1008.52 1009.43 1009.99 1010.66 1011.26 1011.87 1012.52 1012.96 1013.37 1013.74 1013.95 1014.03 1014.33 1014.60 1014.64 1014.82 1014.88 1014.71 1014.68 1014.83 1014.82 1014.73 1014.70 1014.62 1014.36 1014.22 1014.01 1013.56 1013.27 1012.67 1012.25
1006.63 1007.73 1008.94 1009.78 1010.61 1011.22 1011.67 1012.17 1012.78 1013.15 1013.65 1014.02 1014.20 1014.52 1014.93 1014.98 1014.94 1014.90 1014.75 1014.89 1015.07 1015.11 1015.17 1015.15 1015.00 1014.78 1014.58 1014.28 1013.88 1013.55 1013.42 1013.16 1012.65
1006.76 1008.16 1009.11 1009.93 1010.86 1011.42 1011.86 1012.39 1012.95 1013.47 1013.81 1014.16 1014.62 1014.91 1015.02 1014.93 1015.07 1015.12 1014.86 1015.20 1015.18 1015.31 1015.27 1015.20 1015.07 1014.87 1014.59 1014.23 1013.88 1013.57 1013.27 1012.87 1012.48
1006.98 1008.32 1009.28 1010.07 1010.84 1011.71 1012.25 1012.80 1013.38 1013.87 1014.27 1014.81 1014.83 1015.08 1014.97 1015.15 1015.15 1015.10 1015.18 1015.32 1015.45 1015.44 1015.40 1015.28 1014.99 1014.75 1014.52 1014.28 1013.97 1013.63 1013.31 1012.94 1012.39
1006.93 1008.32 1009.28 1010.00 1010.81 1011.90 1012.80 1013.54 1014.10 1014.48 1014.81 1015.05 1015.29 1015.43 1015.36 1015.52 1015.50 1015.53 1015.50 1015.60 1015.56 1015.48 1015.29 1015.07 1014.84 1014.69 1014.43 1014.18 1013.88 1013.52 1013.10 1012.81 1012.66
1006.82 1008.01 1009.07 1009.94 1010.79 1011.85 1012.98 1013.79 1014.35 1014.79 1015.02 1015.33 1015.47 1015.50 1015.50 1015.65 1015.77 1015.72 1015.68 1015.57 1015.60 1015.53 1015.26 1015.00 1014.80 1014.49 1014.24 1013.99 1013.39 1013.85 1014.04 1013.60 1013.14
1006.39 1007.59 1008.75 1009.86 1010.73 1011.89 1012.71 1013.49 1014.11 1014.62 1015.02 1015.38 1015.77 1015.90 1015.82 1015.98 1016.07 1015.94 1015.93 1016.18 1016.16 1015.88 1015.56 1015.07 1014.74 1014.47 1014.10 1014.04 1013.76 1014.12 1014.36 1014.26 1013.54
1005.84 1007.24 1008.36 1009.38 1010.45 1011.61 1012.43 1013.30 1014.01 1014.48 1014.90 1015.47 1015.81 1016.01 1016.01 1016.05 1016.11 1016.12 1016.53 1016.53 1016.47 1016.23 1015.89 1015.41 1015.19 1014.84 1014.66 1014.60 1014.49 1014.46 1014.50 1014.26 1013.46
1005.20 1006.51 1007.77 1008.94 1010.18 1011.39 1012.39 1013.27 1014.10 1014.72 1015.16 1015.62 1015.95 1016.11 1016.27 1016.24 1016.55 1016.53 1016.56 1016.44 1016.36 1016.06 1015.64 1015.38 1015.04 1014.73 1014.54 1014.45 1014.43 1014.62 1014.54 1014.15 1012.97
1004.83 1006.11 1007.46 1008.82 1010.01 1011.27 1012.57 1013.47 1014.34 1014.83 1015.24 1015.57 1015.84 1015.93 1016.24 1016.62 1016.71 1016.69 1016.57 1016.42 1016.30 1015.91 1015.49 1015.03 1014.64 1014.34 1014.47 1014.54 1014.33 1014.68 1014.51 1013.96 1012.62
1004.56 1005.85 1007.33 1008.72 1009.81 1011.23 1012.68 1013.58 1014.24 1014.75 1015.14 1015.49 1015.74 1015.97 1016.50 1016.62 1017.00 1016.84 1016.67 1016.49 1016.19 1015.85 1015.80 1015.26 1014.74 1014.39 1014.39 1014.47 1014.54 1014.64 1014.54 1014.23 1012.92
1004.99 1006.18 1007.66 1009.09 1010.35 1011.66 1012.62 1013.66 1014.06 1014.55 1015.00 1015.37 1015.75 1016.17 1016.56 1016.86 1016.83 1016.86 1016.41 1016.29 1016.00 1016.03 1015.66 1015.40 1014.80 1014.75 1014.36 1014.17 1014.16 1014.25 1014.54 1014.48 1013.79
1005.95 1007.27 1008.70 1009.79 1010.92 1011.91 1013.03 1013.81 1014.26 1014.54 1014.98 1015.40 1015.95 1016.22 1016.42 1016.63 1016.73 1016.60 1016.02 1016.28 1016.11 1016.02 1015.87 1015.36 1014.85 1014.52 1014.00 1013.55 1013.56 1014.11 1014.32 1014.24 1014.18
1007.71 1008.67 1009.66 1010.34 1011.10 1012.33 1013.31 1013.97 1014.26 1014.46 1014.98 1015.61 1015.88 1015.97 1016.03 1016.09 1016.30 1016.36 1016.35 1016.15 1015.73 1015.52 1015.18 1014.75 1014.03 1013.58 1013.47 1013.49 1013.50 1014.14 1014.33 1014.51 1014.31
1008.62 1009.51 1010.10 1010.53 1011.33 1012.38 1013.28 1014.01 1014.53 1014.76 1015.12 1015.58 1015.76 1015.79 1015.81 1015.63 1015.48 1015.39 1015.52 1015.24 1014.36 1014.88 1015.32 1015.12 1014.80 1014.53 1014.46 1014.23 1013.93 1014.13 1015.18 1014.99 1014.34
1009.10 1009.85 1010.43 1010.96 1011.69 1012.42 1013.13 1013.98 1014.45 1014.73 1015.14 1015.49 1015.47 1015.51 1015.41 1015.17 1014.80 1015.01 1014.94 1014.86 1014.64 1014.88 1015.67 1016.07 1016.10 1015.76 1015.68 1015.18 1014.94 1015.69 1016.37 1016.19 1015.37
1009.51 1010.24 1010.86 1011.53 1012.11 1012.65 1013.27 1013.89 1014.30 1014.72 1015.01 1015.22 1015.36 1015.02 1014.56 1014.32 1014.52 1014.05 1014.09 1014.27 1014.18 1015.09 1015.61 1016.04 1016.49 1016.75 1016.74 1016.19 1016.33 1016.30 1016.11 1015.89 1015.43
1009.98 1010.59 1011.22 1011.78 1012.31 1012.83 1013.34 1013.83 1014.13 1014.44 1014.85 1015.03 1015.18 1014.94 1014.57 1014.41 1014.41 1013.80 1013.87 1014.03 1014.18 1014.09 1015.62 1015.98 1016.26 1016.49 1016.58 1016.53 1016.35 1016.14 1015.79 1015.40 1015.01
Thickness
5815 5805 5805 5803 5806 5804 5802 5803 5803 5799 5791 5788 5787 5782 5779 5779 5777 5780 5783 5783 5776 5777 5778 5777 5779 5779 5781 5782 5784 5783 5784 5784 5785
5811 5805 5804 5799 5796 5793 5792 5790 5790 5785 5784 5778 5779 5776 5776 5775 5774 5773 5775 5774 5774 5776 5774 5774 5774 5775 5774 5777 5779 5780 5782 5785 5785
5811 5808 5801 5796 5795 5793 5792 5791 5787 5784 5780 5776 5775 5776 5774 5771 5770 5768 5768 5770 5769 5769 5768 5769 5769 5769 5771 5772 5773 5776 5777 5781 5783
5811 5804 5795 5791 5788 5788 5787 5786 5781 5778 5775 5771 5770 5769 5766 5765 5765 5765 5767 5765 5764 5763 5763 5763 5764 5764 5765 5767 5769 5772 5771 5772 5775
5811 5800 5795 5790 5784 5783 5782 5779 5777 5774 5773 5769 5765 5764 5763 5764 5762 5762 5764 5761 5761 5760 5759 5759 5759 5760 5760 5762 5765 5766 5767 5768 5770
5805 5795 5790 5787 5783 5777 5776 5774 5771 5768 5766 5760 5761 5759 5759 5758 5758 5758 5757 5756 5755 5755 5754 5753 5754 5754 5753 5753 5755 5756 5759 5761 5763
5803 5793 5787 5785 5781 5775 5769 5765 5761 5759 5757 5756 5754 5752 5751 5750 5751 5751 5751 5750 5749 5749 5749 5748 5748 5748 5748 5749 5750 5752 5755 5755 5755
5799 5791 5786 5783 5778 5771 5764 5759 5756 5753 5751 5749 5748 5747 5747 5745 5745 5746 5745 5746 5744 5743 5744 5743 5743 5744 5744 5745 5750 5745 5741 5743 5744
5796 5791 5785 5780 5776 5768 5762 5757 5752 5749 5746 5743 5740 5737 5738 5738 5737 5738 5737 5734 5732 5733 5733 5735 5737 5738 5740 5739 5741 5735 5731 5729 5733
5798 5790 5786 5780 5774 5766 5761 5754 5750 5744 5742 5737 5733 5731 5731 5731 5731 5729 5725 5725 5723 5722 5722 5725 5725 5727 5727 5726 5726 5723 5720 5719 5724
5802 5794 5787 5780 5772 5763 5757 5751 5744 5739 5735 5730 5726 5725 5723 5724 5721 5720 5719 5718 5716 5716 5717 5717 5718 5719 5719 5718 5717 5712 5710 5710 5718
5806 5798 5789 5779 5771 5760 5749 5741 5735 5730 5726 5724 5721 5720 5717 5713 5712 5710 5710 5708 5707 5708 5710 5712 5713 5713 5710 5707 5708 5701 5700 5702 5711
5807 5799 5788 5775 5767 5754 5741 5734 5729 5723 5719 5717 5714 5713 5708 5707 5702 5702 5700 5699 5699 5701 5698 5700 5702 5702 5700 5696 5695 5691 5689 5688 5697
5801 5792 5779 5768 5757 5744 5737 5729 5726 5718 5715 5711 5709 5705 5701 5697 5696 5694 5695 5693 5693 5690 5691 5689 5691 5688 5690 5689 5687 5684 5676 5673 5677
5785 5774 5763 5755 5744 5737 5729 5723 5717 5712 5707 5706 5701 5698 5695 5691 5689 5688 5691 5685 5683 5681 5679 5679 5679 5679 5680 5683 5681 5672 5667 5663 5658
5764 5756 5748 5744 5737 5726 5720 5714 5711 5706 5703 5697 5694 5692 5690 5688 5684 5681 5678 5676 5675 5674 5674 5674 5676 5677 5674 5670 5668 5660 5654 5649 5645
5750 5743 5738 5736 5728 5718 5710 5706 5701 5699 5696 5691 5688 5685 5684 5683 5681 5679 5674 5673 5678 5669 5663 5661 5661 5659 5654 5653 5653 5648 5635 5632 5633
5740 5734 5730 5725 5718 5711 5705 5700 5696 5694 5689 5686 5683 5681 5679 5678 5679 5672 5670 5667 5665 5661 5650 5643 5641 5640 5635 5635 5634 5624 5612 5609 5614
5730 5723 5719 5712 5708 5703 5698 5694 5689 5686 5684 5681 5676 5676 5678 5677 5672 5673 5668 5662 5661 5647 5640 5632 5624 5618 5615 5618 5610 5606 5604 5603 5603
5716 5714 5708 5702 5698 5695 5692 5687 5684 5682 5678 5674 5669 5669 5670 5668 5663 5666 5660 5655 5649 5648 5631 5622 5617 5611 5606 5602 5601 5599 5599 5599 5598